Regional Weather Roundup
Issued by NWS

Home | Current Version | Previous Version | Graphics & Text | Print | Product List | Glossary On
Versions: 1 2 3 4 5 6 7 8 9 10 11 12 13 14 15 16 17 18 19 20 21 22 23 24 25 26 27 28 29 30 31 32 33 34 35 36 37 38 39 40 41 42 43 44 45 46 47 48 49 50
000
ASUS45 KCYS 200110
RWRWY

WYOMING REGIONAL WEATHER ROUNDUP
NATIONAL WEATHER SERVICE CHEYENNE WY
700 PM MDT FRI SEP 19 2014

NOTE:  "FAIR" INDICATES FEW OR NO CLOUDS BELOW 12,000 FEET
WITH NO SIGNIFICANT WEATHER AND/OR OBSTRUCTIONS TO VISIBILITY.

WYZ001-200200-
YELLOWSTONE NATIONAL PARK

CITY           SKY/WX    TMP DP  RH WIND       PRES   REMARKS
LK YELLOWSTONE   N/A     54  42  64 CALM      30.25R
W YELLOWSTONE  NOT AVBL

$$
WYZ002>013-054>058-071-098>099-200200-
NORTHERN WYOMING

CITY           SKY/WX    TMP DP  RH WIND       PRES   REMARKS
JACKSON        NOT AVBL
CODY             N/A    N/A N/A N/A MISG        N/A
GREYBULL       PTCLDY    78  44  29 NW14      29.92R
WORLAND        PTCLDY    73  50  44 NE3       29.93R
SHERIDAN       MOCLDY    66  49  54 NW5       29.98R
BUFFALO        PTCLDY    66  45  46 NW17      30.03R
GILLETTE       CLEAR     65  47  52 N7        29.97R
HULETT         MOCLDY    68  46  45 MISG      29.98
NEWCASTLE      FAIR      72  41  33 N9G18     29.94

$$
WYZ014>020-022>026-101>103-200200-
CENTRAL WYOMING

CITY           SKY/WX    TMP DP  RH WIND       PRES   REMARKS
BIG PINEY      CLEAR     67  37  33 N10       30.20R
PINEDALE       CLEAR     64  36  34 NW7       30.21R
DUBOIS         FAIR      63  32  31 W15       30.17R
LANDER         CLEAR     75  37  25 NW7       30.00R
RIVERTON       CLEAR     74  36  25 NW15      30.01R
CASPER         CLEAR     73  32  22 NW9       29.99R
DOUGLAS        PTCLDY    76  38  25 N12       29.97R

$$
WYZ021-027>030-104>119-200200-
SOUTHERN WYOMING

CITY           SKY/WX    TMP DP  RH WIND       PRES   REMARKS
EVANSTON       CLEAR     71  38  29 N12       30.21R
KEMMERER       CLEAR     64  36  34 NW8       30.23R
FORT BRIDGER   FAIR      73  38  28 NW10      30.22S
ROCK SPRINGS   CLEAR     71  34  25 W17       30.16R
DIXON          FAIR      71  48  45 CALM      30.16R
RAWLINS        CLEAR     72  35  25 W17       30.13S
SARATOGA       FAIR      68  41  37 W8        30.16R
LARAMIE        MOCLDY    67  38  34 NW13      30.14R
CHEYENNE       CLOUDY    77  39  25 NW5       30.05R
TORRINGTON     CLEAR     76  47  35 N8        29.89R
PINE BLUFFS    FAIR      64  54  68 CALM      29.99R

$$


USA.gov is the U.S. government's official web portal to all federal, state and local government web resources and services.